User: anonymous   Login
Location: *
(44.1392°N, 4.8079°E)
Time: 12:07:00
(UTC+00:00)
Language:

Cosmos 468 Rocket - Orbit

View from above orbital plane
View from above orbital plane
View from above satellite
View from above satellite

Ground track
Ground track

The orbit data is extracted from the following two-line orbital elements,

1  5707U 71114B   21261.06676861  .00000096  00000-0  39504-4 0  9995
2  5707  74.0255  99.0241 0024262 148.3665 211.8954 14.38957415606287
Epoch (UTC): 18 September 2021 01:36:08
Eccentricity: 0.0024262
inclination: 74.0255°
perigee height: 744 km
apogee height: 779 km
right ascension of ascending node: 99.0241°
argument of perigee: 148.3665°
revolutions per day: 14.38957415
mean anomaly at epoch: 211.8954°
orbit number at epoch: 60628

The dashed part of the orbit path shows where the satellite is in the earth's shadow,  

DLR